Portada
METAR-TAF:

METAR-TAF

Aeroports :

Kudat, Malàisia

latitud: 06-55N, longitud: 116-50E, altitud: 3 m

Observació

L'informe es va fer fa 1 hora i 1 minuts, a les 22:00 UTC
Vent 2 kt amb direcció variable
Temperatura 24°C
Humitat 100%
Pressió 1009 hPa
Visibilitat 10 km o més
Escasses núvols a una alçada de 1300 ft
Núvols disperses a una alçada de 14000 ft
Cel ennuvolat a una alçada de 27000 ft

METAR: WBKT 112200Z VRB02KT 9999 FEW013 SCT140 BKN270 24/24 Q1009

Hora: 07:01 (23:01 UTC)


TAF: manca

Observacions i pronòstics meteorològics de més de 4000 aeroports (METAR i TAF).

Les estacions disponibles són els punts grocs i vermells al mapa.

Posi el ratolí al punt desitjat per veure el nom de l'estació.

Feu clic per veure les observacions i els pronòstics meteorològics.

Per canviar el mapa: feu clic els botons verds amb una creu de color negre per apropar; al botó verd amb un guió per allunyar la imatge; o en les fletxes verdes per a mapes adjacents.


METAR-TAF: